Flag for France Weather past 2 weeks in Istres, France

Now
86 °F

Passing clouds.


Feels Like: 87 °F
Forecast: 69 / 88 °F
Wind: 3 mph from North

Location: Istres Airport

Current Time: Jul 24, 2014 at 12:45:27 PM

Latest Report: Jul 24, 2014 at 12:00 PM


Visibility: N/A

Pressure: 29.83 "Hg

Humidity: 46%

Dew point: 63 °F

Location of IstresLocation

Historic Weather in Istres — Graph

°F

Istres temperature yesterday

Maximum temperature yesterday: 90 °F (at 4:00 PM)
Minimum temperature yesterday: 66 °F (at 6:00 AM)
Average temperature yesterday: 77 °F

Past Weeks' High & Low Weather Summary

 TemperatureHumidityPressure
High91 °F (Jul 16, 4:00 PM)94% (Jul 18, 1:30 AM)30.09 "Hg (Jul 18, 1:30 AM)
Low61 °F (Jul 10, 3:30 AM)21% (Jul 19, 3:30 PM)29.77 "Hg (Jul 20, 2:30 PM)
Average75 °F57%29.93 "Hg
* Reported Jul 9 3:00 PM — Jul 24 11:30 AM, Istres, Weather by CustomWeather, © 2014

Note: Actual official high and low records may vary slightly from our data, if they occured in-between our weather recording intervals... More about our weather records

Advertising

Istres weather history for previous 24 hours

 ConditionsComfort  
Time TempWeatherWind HumidityBarometerVisibility
11:30 AM
Jul 24
82 °FClear.3 mph51%29.83 "HgN/A
11:00 AM82 °FClear.3 mph51%29.83 "HgN/A
10:30 AM82 °FClear.2 mph51%29.83 "HgN/A
10:00 AM79 °FClear.2 mph58%29.83 "HgN/A
9:30 AM79 °FClear.1 mph61%29.83 "HgN/A
9:00 AM77 °FClear.3 mph65%29.83 "HgN/A
8:30 AM75 °FClear.5 mph69%29.83 "HgN/A
8:00 AM72 °FClear.3 mph78%29.83 "HgN/A
7:30 AM70 °FClear.3 mph78%29.83 "HgN/A
7:00 AM70 °FClear.3 mph83%29.83 "HgN/A
6:30 AM70 °FClear.2 mph78%29.83 "HgN/A
6:00 AM72 °FClear.3 mph78%29.80 "HgN/A
5:30 AM72 °FClear.5 mph73%29.80 "HgN/A
5:00 AM70 °FClear.3 mph83%29.80 "HgN/A
4:30 AM70 °FClear.5 mph83%29.80 "HgN/A
4:00 AM72 °FClear.2 mph78%29.80 "HgN/A
3:30 AM72 °FClear.3 mph78%29.80 "HgN/A
3:00 AM72 °FClear.5 mph78%29.83 "HgN/A
2:30 AM72 °FClear.5 mph78%29.83 "HgN/A
2:00 AM72 °FClear.5 mph78%29.83 "HgN/A
1:30 AM73 °FClear.5 mph74%29.83 "HgN/A
1:00 AM73 °FClear.2 mph69%29.83 "HgN/A
12:30 AM73 °FClear.5 mph74%29.83 "HgN/A
12:00 AM73 °FClear.7 mph74%29.83 "HgN/A
11:30 PM
Jul 23
73 °FClear.5 mph69%29.83 "HgN/A
11:00 PM73 °FClear.6 mph69%29.83 "HgN/A
10:30 PM73 °FClear.2 mph69%29.86 "HgN/A
10:00 PM75 °FClear.3 mph65%29.83 "HgN/A
9:30 PM75 °FClear.5 mph65%29.83 "HgN/A
9:00 PM77 °FClear.9 mph61%29.83 "HgN/A
8:30 PM79 °FClear.9 mph61%29.80 "HgN/A
8:00 PM82 °FClear.13 mph51%29.80 "HgN/A
7:30 PM84 °FClear.12 mph48%29.80 "HgN/A
7:00 PM86 °FClear.12 mph46%29.80 "HgN/A
6:30 PM86 °FClear.12 mph46%29.80 "HgN/A
6:00 PM86 °FClear.14 mph46%29.77 "HgN/A
5:30 PM88 °FClear.14 mph43%29.77 "HgN/A
5:00 PM88 °FClear.12 mph46%29.77 "HgN/A
4:30 PM88 °FClear.14 mph43%29.77 "HgN/A
4:00 PM90 °FClear.9 mph41%29.77 "HgN/A
3:00 PM88 °FClear.9 mph43%29.80 "HgN/A
1:30 PM86 °FPassing clouds.5 mph46%29.80 "HgN/A
1:00 PM84 °FPassing clouds.5 mph48%29.80 "HgN/A
12:30 PM84 °FClear.3 mph48%29.83 "HgN/A
12:00 PM82 °FClear.6 mph51%29.83 "HgN/A
Weather by CustomWeather, © 2014

See weather overviewHow to use our weather pages